| time (UTC) | temp F | wind direction | speed MPH | gust MPH | rain 1hr in | rain 24hr in | rain mn in | humidity % | barometer mb |
| 20260505200949 | 53 | 280 | 4.0 | 10.0 | 0.00 | 0.00 | 0.00 | 31 | 1021.8 |
| 20260505200447 | 51 | 16 | 7.0 | 15.0 | 0.00 | 0.00 | 0.00 | 31 | 1022.1 |
| 20260505195943 | 51 | 335 | 7.0 | 11.0 | 0.00 | 0.00 | 0.00 | 31 | 1022.0 |
| 20260505195440 | 49 | 346 | 1.0 | 7.0 | 0.00 | 0.00 | 0.00 | 33 | 1022.2 |
| 20260505194937 | 50 | 341 | 6.0 | 10.0 | 0.00 | 0.00 | 0.00 | 32 | 1022.0 |
| 20260505194435 | 51 | 355 | 4.0 | 6.0 | 0.00 | 0.00 | 0.00 | 31 | 1021.8 |
| 20260505193934 | 51 | 347 | 1.0 | 7.0 | 0.00 | 0.00 | 0.00 | 33 | 1022.1 |
| 20260505193432 | 53 | 15 | 1.0 | 7.0 | 0.00 | 0.00 | 0.00 | 30 | 1022.0 |
| 20260505192930 | 50 | 323 | 3.0 | 7.0 | 0.00 | 0.00 | 0.00 | 34 | 1022.0 |
| 20260505192428 | 49 | 323 | 5.0 | 8.0 | 0.00 | 0.00 | 0.00 | 35 | 1022.0 |
| 20260505191925 | 49 | 347 | 2.0 | 13.0 | 0.00 | 0.00 | 0.00 | 35 | 1022.2 |
| 20260505191424 | 49 | 5 | 3.0 | 7.0 | 0.00 | 0.00 | 0.00 | 34 | 1022.1 |
| 20260505190920 | 50 | 333 | 4.0 | 9.0 | 0.00 | 0.00 | 0.00 | 34 | 1022.2 |
| 20260505190415 | 51 | 5 | 3.0 | 9.0 | 0.00 | 0.00 | 0.00 | 33 | 1022.2 |
| 20260505185910 | 51 | 351 | 2.0 | 8.0 | 0.00 | 0.00 | 0.00 | 33 | 1022.3 |
| 20260505185408 | 48 | 346 | 7.0 | 14.0 | 0.00 | 0.00 | 0.00 | 36 | 1022.4 |
| 20260505184904 | 48 | 7 | 5.0 | 11.0 | 0.00 | 0.00 | 0.00 | 37 | 1022.3 |
| 20260505184401 | 49 | 328 | 4.0 | 8.0 | 0.00 | 0.00 | 0.00 | 37 | 1022.2 |
| 20260505183858 | 49 | 334 | 4.0 | 9.0 | 0.00 | 0.00 | 0.00 | 38 | 1022.3 |
| 20260505183355 | 48 | 340 | 5.0 | 7.0 | 0.00 | 0.00 | 0.00 | 40 | 1022.5 |
| 20260505182851 | 48 | 352 | 5.0 | 8.0 | 0.00 | 0.00 | 0.00 | 40 | 1022.4 |
| 20260505182348 | 47 | 8 | 1.0 | 11.0 | 0.00 | 0.00 | 0.00 | 40 | 1022.3 |
| 20260505181845 | 47 | 5 | 5.0 | 10.0 | 0.00 | 0.00 | 0.00 | 39 | 1022.3 |
| 20260505181342 | 50 | 354 | 5.0 | 8.0 | 0.00 | 0.00 | 0.00 | 36 | 1022.4 |
| 20260505180838 | 51 | 24 | 0.0 | 9.0 | 0.00 | 0.00 | 0.00 | 37 | 1022.4 |
| 20260505180335 | 51 | 38 | 2.0 | 13.0 | 0.00 | 0.00 | 0.00 | 35 | 1022.5 |
| 20260505175832 | 49 | 5 | 3.0 | 6.0 | 0.00 | 0.00 | 0.00 | 35 | 1022.4 |
| 20260505175328 | 50 | 351 | 4.0 | 8.0 | 0.00 | 0.00 | 0.00 | 39 | 1022.6 |
| 20260505174825 | 49 | 2 | 4.0 | 8.0 | 0.00 | 0.00 | 0.00 | 37 | 1022.4 |
| 20260505174322 | 51 | 302 | 1.0 | 9.0 | 0.00 | 0.00 | 0.00 | 38 | 1022.5 |
| 20260505173818 | 49 | 22 | 0.0 | 8.0 | 0.00 | 0.00 | 0.00 | 41 | 1022.5 |
| 20260505173314 | 48 | 329 | 2.0 | 7.0 | 0.00 | 0.00 | 0.00 | 40 | 1022.6 |
| 20260505172812 | 45 | 289 | 1.0 | 6.0 | 0.00 | 0.00 | 0.00 | 45 | 1022.5 |
| 20260505172310 | 46 | 346 | 6.0 | 13.0 | 0.00 | 0.00 | 0.00 | 44 | 1022.6 |
| 20260505171804 | 48 | 23 | 1.0 | 8.0 | 0.00 | 0.00 | 0.00 | 41 | 1022.6 |
| 20260505171301 | 48 | 14 | 2.0 | 9.0 | 0.00 | 0.00 | 0.00 | 42 | 1022.7 |
| 20260505170757 | 48 | 15 | 5.0 | 9.0 | 0.00 | 0.00 | 0.00 | 41 | 1022.4 |
| 20260505170255 | 44 | 17 | 1.0 | 7.0 | 0.00 | 0.00 | 0.00 | 45 | 1022.6 |
| 20260505165750 | 45 | 351 | 2.0 | 8.0 | 0.00 | 0.00 | 0.00 | 44 | 1022.7 |
| 20260505165246 | 44 | 342 | 6.0 | 10.0 | 0.00 | 0.00 | 0.00 | 46 | 1022.8 |
| 20260505164742 | 44 | 0 | 8.0 | 10.0 | 0.00 | 0.00 | 0.00 | 46 | 1022.8 |
| 20260505164239 | 44 | 6 | 4.0 | 9.0 | 0.00 | 0.00 | 0.00 | 46 | 1022.7 |
| 20260505163737 | 47 | 316 | 6.0 | 9.0 | 0.00 | 0.00 | 0.00 | 44 | 1022.6 |
| 20260505163236 | 47 | 13 | 4.0 | 8.0 | 0.00 | 0.00 | 0.00 | 46 | 1022.7 |
| 20260505162732 | 47 | 325 | 6.0 | 8.0 | 0.00 | 0.00 | 0.00 | 45 | 1022.6 |
| 20260505162229 | 44 | 340 | 3.0 | 6.0 | 0.00 | 0.00 | 0.00 | 50 | 1022.7 |
| 20260505161726 | 45 | 340 | 5.0 | 8.0 | 0.00 | 0.00 | 0.00 | 47 | 1022.7 |
| 20260505161224 | 43 | 0 | 5.0 | 8.0 | 0.00 | 0.00 | 0.00 | 51 | 1022.7 |
| 20260505160721 | 42 | 348 | 3.0 | 9.0 | 0.00 | 0.00 | 0.00 | 53 | 1022.8 |
| 20260505160219 | 43 | 352 | 6.0 | 10.0 | 0.00 | 0.00 | 0.00 | 54 | 1022.9 |
| 20260505153158 | 45 | 334 | 2.0 | 11.0 | 0.00 | 0.00 | 0.00 | 52 | 1022.7 |
| 20260505152655 | 45 | 12 | 1.0 | 4.0 | 0.00 | 0.00 | 0.00 | 53 | 1022.9 |
| 20260505152150 | 45 | 48 | 2.0 | 8.0 | 0.00 | 0.00 | 0.00 | 51 | 1023.0 |
| 20260505151646 | 44 | 313 | 2.0 | 6.0 | 0.00 | 0.00 | 0.00 | 56 | 1022.8 |
| 20260505151144 | 44 | 342 | 2.0 | 9.0 | 0.00 | 0.00 | 0.00 | 53 | 1023.0 |
| 20260505150639 | 42 | 329 | 2.0 | 3.0 | 0.00 | 0.00 | 0.00 | 57 | 1022.9 |
| 20260505150137 | 42 | 327 | 3.0 | 8.0 | 0.00 | 0.00 | 0.00 | 57 | 1022.8 |
| 20260505140605 | 41 | 342 | 0.0 | 1.0 | 0.00 | 0.00 | 0.00 | 52 | 1022.9 |
| 20260505125019 | 39 | 333 | 1.0 | 3.0 | 0.00 | 0.00 | 0.00 | 57 | 1022.5 |
| 20260505124515 | 39 | 337 | 1.0 | 3.0 | 0.00 | 0.00 | 0.00 | 57 | 1022.1 |
| 20260505124012 | 39 | 353 | 2.0 | 6.0 | 0.00 | 0.00 | 0.00 | 56 | 1022.3 |
| 20260505123508 | 39 | 331 | 1.0 | 2.0 | 0.00 | 0.00 | 0.00 | 56 | 1022.2 |
| 20260505123004 | 39 | 312 | 0.0 | 0.0 | 0.00 | 0.00 | 0.00 | 56 | 1022.3 |
| 20260505122502 | 39 | 341 | 1.0 | 2.0 | 0.00 | 0.00 | 0.00 | 56 | 1022.2 |
| 20260505121958 | 38 | 340 | 0.0 | 1.0 | 0.00 | 0.00 | 0.00 | 56 | 1022.1 |
| 20260505121455 | 38 | 318 | 0.0 | 0.0 | 0.00 | 0.00 | 0.00 | 56 | 1022.1 |
| 20260505120951 | 38 | 313 | 0.0 | 0.0 | 0.00 | 0.00 | 0.00 | 56 | 1022.2 |
| 20260505120448 | 38 | 307 | 0.0 | 0.0 | 0.00 | 0.00 | 0.00 | 57 | 1022.1 |
| 20260505115947 | 38 | 304 | 0.0 | 0.0 | 0.00 | 0.00 | 0.00 | 56 | 1022.3 |
| 20260505115443 | 38 | 313 | 0.0 | 0.0 | 0.00 | 0.00 | 0.00 | 55 | 1022.3 |
| 20260505114941 | 39 | 306 | 0.0 | 0.0 | 0.00 | 0.00 | 0.00 | 55 | 1022.2 |
| 20260505114432 | 39 | 337 | 0.0 | 2.0 | 0.00 | 0.00 | 0.00 | 54 | 1022.0 |
| 20260505113928 | 39 | 310 | 0.0 | 0.0 | 0.00 | 0.00 | 0.00 | 54 | 1022.0 |
| 20260505113425 | 39 | 308 | 0.0 | 0.0 | 0.00 | 0.00 | 0.00 | 53 | 1021.8 |
| 20260505112921 | 39 | 337 | 0.0 | 0.0 | 0.00 | 0.00 | 0.00 | 53 | 1022.1 |
| 20260505112419 | 39 | 309 | 0.0 | 0.0 | 0.00 | 0.00 | 0.00 | 53 | 1022.0 |
| 20260505111914 | 39 | 316 | 0.0 | 0.0 | 0.00 | 0.00 | 0.00 | 54 | 1021.8 |
| 20260505111409 | 39 | 310 | 0.0 | 0.0 | 0.00 | 0.00 | 0.00 | 54 | 1022.0 |
| 20260505110906 | 39 | 322 | 0.0 | 0.0 | 0.00 | 0.00 | 0.00 | 55 | 1021.8 |
| 20260505110403 | 39 | 314 | 0.0 | 0.0 | 0.00 | 0.00 | 0.00 | 56 | 1021.8 |
| 20260505101833 | 38 | 281 | 0.0 | 0.0 | 0.00 | 0.00 | 0.00 | 56 | 1021.7 |
| 20260505101328 | 39 | 269 | 0.0 | 0.0 | 0.00 | 0.00 | 0.00 | 56 | 1021.6 |
| 20260505100824 | 39 | 265 | 0.0 | 0.0 | 0.00 | 0.00 | 0.00 | 55 | 1021.7 |
| 20260505100321 | 39 | 265 | 0.0 | 0.0 | 0.00 | 0.00 | 0.00 | 56 | 1021.7 |
| 20260505095817 | 39 | 264 | 0.0 | 0.0 | 0.00 | 0.00 | 0.00 | 55 | 1021.8 |
| 20260505095315 | 39 | 262 | 0.0 | 0.0 | 0.00 | 0.00 | 0.00 | 55 | 1021.5 |
| 20260505094810 | 39 | 262 | 0.0 | 0.0 | 0.00 | 0.00 | 0.00 | 55 | 1021.4 |
| 20260505094308 | 39 | 260 | 0.0 | 0.0 | 0.00 | 0.00 | 0.00 | 55 | 1021.3 |
| 20260505093803 | 39 | 260 | 0.0 | 0.0 | 0.00 | 0.00 | 0.00 | 55 | 1021.4 |
| 20260505093301 | 39 | 260 | 0.0 | 0.0 | 0.00 | 0.00 | 0.00 | 55 | 1021.5 |
| 20260505092757 | 39 | 260 | 0.0 | 0.0 | 0.00 | 0.00 | 0.00 | 54 | 1021.4 |
| 20260505092256 | 39 | 260 | 0.0 | 0.0 | 0.00 | 0.00 | 0.00 | 54 | 1021.3 |
| 20260505091753 | 39 | 259 | 0.0 | 0.0 | 0.00 | 0.00 | 0.00 | 55 | 1021.4 |
| 20260505091251 | 39 | 259 | 0.0 | 0.0 | 0.00 | 0.00 | 0.00 | 55 | 1021.5 |
| 20260505090748 | 39 | 259 | 0.0 | 0.0 | 0.00 | 0.00 | 0.00 | 55 | 1021.4 |
| 20260505090246 | 39 | 260 | 0.0 | 0.0 | 0.00 | 0.00 | 0.00 | 55 | 1021.4 |
| 20260505085743 | 39 | 265 | 0.0 | 0.0 | 0.00 | 0.00 | 0.00 | 54 | 1021.2 |
| 20260505085242 | 39 | 265 | 0.0 | 0.0 | 0.00 | 0.00 | 0.00 | 55 | 1021.5 |
| 20260505084738 | 39 | 265 | 0.0 | 0.0 | 0.00 | 0.00 | 0.00 | 56 | 1021.6 |
| 20260505084238 | 39 | 265 | 0.0 | 0.0 | 0.00 | 0.00 | 0.00 | 56 | 1021.3 |
| 20260505083734 | 39 | 265 | 0.0 | 0.0 | 0.00 | 0.00 | 0.00 | 54 | 1021.5 |
| 20260505083231 | 39 | 273 | 0.0 | 0.0 | 0.00 | 0.00 | 0.00 | 57 | 1021.3 |
| 20260505082727 | 39 | 273 | 0.0 | 0.0 | 0.00 | 0.00 | 0.00 | 56 | 1021.4 |
| 20260505082224 | 39 | 273 | 0.0 | 0.0 | 0.00 | 0.00 | 0.00 | 54 | 1021.4 |
| 20260505081720 | 39 | 273 | 0.0 | 0.0 | 0.00 | 0.00 | 0.00 | 55 | 1021.3 |
| 20260505081218 | 39 | 273 | 0.0 | 0.0 | 0.00 | 0.00 | 0.00 | 57 | 1021.4 |
| 20260505080715 | 39 | 272 | 0.0 | 0.0 | 0.00 | 0.00 | 0.00 | 54 | 1021.3 |
| 20260505080210 | 39 | 273 | 0.0 | 0.0 | 0.00 | 0.00 | 0.00 | 54 | 1021.3 |
| 20260505075706 | 39 | 273 | 0.0 | 0.0 | 0.00 | 0.00 | 0.00 | 54 | 1021.6 |
| 20260505075203 | 39 | 273 | 0.0 | 0.0 | 0.00 | 0.00 | 0.00 | 54 | 1021.3 |
| 20260505074700 | 39 | 273 | 0.0 | 0.0 | 0.00 | 0.00 | 0.00 | 55 | 1021.2 |
| 20260505074157 | 39 | 273 | 0.0 | 0.0 | 0.00 | 0.00 | 0.00 | 53 | 1021.4 |
| 20260505073655 | 39 | 273 | 0.0 | 0.0 | 0.00 | 0.00 | 0.00 | 55 | 1021.2 |
| 20260505073153 | 39 | 273 | 0.0 | 0.0 | 0.00 | 0.00 | 0.00 | 53 | 1021.3 |
| 20260505072648 | 39 | 273 | 0.0 | 0.0 | 0.00 | 0.00 | 0.00 | 53 | 1021.4 |
| 20260505072145 | 40 | 273 | 0.0 | 0.0 | 0.00 | 0.00 | 0.00 | 52 | 1021.2 |
| 20260505071640 | 40 | 273 | 0.0 | 0.0 | 0.00 | 0.00 | 0.00 | 51 | 1021.2 |
| 20260505071139 | 39 | 273 | 0.0 | 0.0 | 0.00 | 0.00 | 0.00 | 53 | 1021.3 |
| 20260505070635 | 39 | 273 | 0.0 | 0.0 | 0.00 | 0.00 | 0.00 | 51 | 1021.3 |
| 20260505070132 | 39 | 272 | 0.0 | 0.0 | 0.00 | 0.00 | 0.00 | 52 | 1021.3 |
| 20260505065628 | 39 | 273 | 0.0 | 0.0 | 0.00 | 0.00 | 0.00 | 52 | 1021.4 |
| 20260505065124 | 39 | 268 | 0.0 | 0.0 | 0.00 | 0.00 | 0.00 | 53 | 1021.1 |
| 20260505064621 | 39 | 274 | 0.0 | 0.0 | 0.00 | 0.00 | 0.00 | 54 | 1020.8 |
| 20260505064120 | 39 | 329 | 0.0 | 0.0 | 0.00 | 0.00 | 0.00 | 52 | 1021.3 |
| 20260505063617 | 39 | 345 | 0.0 | 0.0 | 0.00 | 0.00 | 0.00 | 52 | 1021.3 |
| 20260505063113 | 40 | 13 | 0.0 | 0.0 | 0.00 | 0.00 | 0.00 | 50 | 1021.1 |
| 20260505062609 | 39 | 344 | 0.0 | 0.0 | 0.00 | 0.00 | 0.00 | 51 | 1021.2 |
| 20260505062107 | 39 | 312 | 0.0 | 0.0 | 0.00 | 0.00 | 0.00 | 51 | 1021.0 |
| 20260505061604 | 40 | 314 | 0.0 | 0.0 | 0.00 | 0.00 | 0.00 | 51 | 1021.1 |
| 20260505061102 | 40 | 327 | 0.0 | 0.0 | 0.00 | 0.00 | 0.00 | 50 | 1021.2 |
| 20260505060559 | 40 | 350 | 0.0 | 0.0 | 0.00 | 0.00 | 0.00 | 50 | 1021.1 |
| 20260505060055 | 40 | 8 | 0.0 | 0.0 | 0.00 | 0.00 | 0.00 | 49 | 1021.0 |
| 20260505055551 | 40 | 39 | 0.0 | 0.0 | 0.00 | 0.00 | 0.00 | 49 | 1020.9 |
| 20260505055048 | 40 | 43 | 0.0 | 2.0 | 0.00 | 0.00 | 0.00 | 49 | 1021.0 |
| 20260505054545 | 40 | 34 | 0.0 | 1.0 | 0.00 | 0.00 | 0.00 | 50 | 1020.9 |
| 20260505054043 | 40 | 32 | 0.0 | 1.0 | 0.00 | 0.00 | 0.00 | 50 | 1020.6 |
| 20260505053540 | 40 | 39 | 0.0 | 1.0 | 0.00 | 0.00 | 0.00 | 50 | 1021.0 |
| 20260505053037 | 40 | 24 | 0.0 | 1.0 | 0.00 | 0.00 | 0.00 | 50 | 1020.8 |
| 20260505052534 | 40 | 38 | 0.0 | 1.0 | 0.00 | 0.00 | 0.00 | 50 | 1020.6 |
| 20260505052031 | 39 | 16 | 0.0 | 0.0 | 0.00 | 0.00 | 0.00 | 51 | 1020.8 |
| 20260505051528 | 39 | 340 | 0.0 | 0.0 | 0.00 | 0.00 | 0.00 | 52 | 1020.5 |
| 20260505051026 | 39 | 327 | 0.0 | 0.0 | 0.00 | 0.00 | 0.00 | 51 | 1020.5 |
| 20260505050524 | 39 | 318 | 0.0 | 0.0 | 0.00 | 0.00 | 0.00 | 51 | 1020.8 |
| 20260505041451 | 43 | 44 | 2.0 | 4.0 | 0.00 | 0.00 | 0.00 | 45 | 1020.4 |
| 20260505040949 | 43 | 33 | 3.0 | 7.0 | 0.00 | 0.00 | 0.00 | 45 | 1020.3 |
| 20260505040446 | 43 | 49 | 2.0 | 7.0 | 0.00 | 0.00 | 0.00 | 45 | 1020.3 |
| 20260505035943 | 43 | 42 | 1.0 | 3.0 | 0.00 | 0.00 | 0.00 | 45 | 1020.2 |
| 20260505035439 | 43 | 19 | 0.0 | 8.0 | 0.00 | 0.00 | 0.00 | 44 | 1020.0 |
| 20260505034936 | 43 | 39 | 0.0 | 6.0 | 0.00 | 0.00 | 0.00 | 44 | 1020.1 |
| 20260505034432 | 43 | 27 | 1.0 | 6.0 | 0.00 | 0.00 | 0.00 | 44 | 1020.2 |
| 20260505033930 | 44 | 34 | 0.0 | 3.0 | 0.00 | 0.00 | 0.00 | 43 | 1020.1 |
| 20260505033426 | 44 | 36 | 1.0 | 3.0 | 0.00 | 0.00 | 0.00 | 43 | 1020.1 |
| 20260505032925 | 44 | 47 | 2.0 | 8.0 | 0.00 | 0.00 | 0.00 | 42 | 1020.1 |
| 20260505032422 | 43 | 46 | 1.0 | 3.0 | 0.00 | 0.00 | 0.00 | 43 | 1020.0 |
| 20260505031918 | 44 | 345 | 0.0 | 3.0 | 0.00 | 0.00 | 0.00 | 42 | 1019.7 |
| 20260505031415 | 44 | 51 | 0.0 | 3.0 | 0.00 | 0.00 | 0.00 | 41 | 1019.7 |
| 20260505030912 | 45 | 54 | 2.0 | 4.0 | 0.00 | 0.00 | 0.00 | 41 | 1019.4 |
| 20260505030408 | 45 | 3 | 0.0 | 3.0 | 0.00 | 0.00 | 0.00 | 41 | 1019.6 |
| 20260505025903 | 46 | 47 | 0.0 | 0.0 | 0.00 | 0.00 | 0.00 | 40 | 1019.4 |
| 20260505025401 | 46 | 9 | 1.0 | 4.0 | 0.00 | 0.00 | 0.00 | 38 | 1019.7 |
| 20260505024900 | 46 | 47 | 2.0 | 4.0 | 0.00 | 0.00 | 0.00 | 37 | 1019.3 |
| 20260505024357 | 47 | 16 | 1.0 | 2.0 | 0.00 | 0.00 | 0.00 | 36 | 1019.2 |
| 20260505023854 | 47 | 68 | 1.0 | 8.0 | 0.00 | 0.00 | 0.00 | 36 | 1019.0 |
| 20260505023351 | 48 | 351 | 2.0 | 4.0 | 0.00 | 0.00 | 0.00 | 35 | 1019.0 |
| 20260505022848 | 48 | 5 | 0.0 | 7.0 | 0.00 | 0.00 | 0.00 | 33 | 1019.0 |
| 20260505022345 | 49 | 7 | 2.0 | 3.0 | 0.00 | 0.00 | 0.00 | 31 | 1018.8 |
| 20260505021842 | 50 | 341 | 2.0 | 3.0 | 0.00 | 0.00 | 0.00 | 30 | 1018.8 |
| 20260505021338 | 50 | 338 | 5.0 | 7.0 | 0.00 | 0.00 | 0.00 | 29 | 1018.6 |
| 20260505020834 | 51 | 345 | 2.0 | 4.0 | 0.00 | 0.00 | 0.00 | 27 | 1018.6 |
| 20260505020330 | 52 | 351 | 3.0 | 6.0 | 0.00 | 0.00 | 0.00 | 26 | 1018.6 |
| 20260505015827 | 52 | 20 | 3.0 | 6.0 | 0.00 | 0.00 | 0.00 | 26 | 1018.5 |
| 20260505015324 | 53 | 339 | 0.0 | 2.0 | 0.00 | 0.00 | 0.00 | 26 | 1018.4 |
| 20260505014821 | 53 | 357 | 0.0 | 3.0 | 0.00 | 0.00 | 0.00 | 26 | 1018.5 |
| 20260505014318 | 54 | 348 | 1.0 | 6.0 | 0.00 | 0.00 | 0.00 | 25 | 1018.5 |
| 20260505013815 | 54 | 5 | 1.0 | 3.0 | 0.00 | 0.00 | 0.00 | 25 | 1018.1 |
| 20260505013312 | 55 | 351 | 2.0 | 6.0 | 0.00 | 0.00 | 0.00 | 23 | 1018.1 |
| 20260505012811 | 55 | 5 | 3.0 | 11.0 | 0.00 | 0.00 | 0.00 | 23 | 1018.1 |
| 20260505012308 | 55 | 326 | 6.0 | 11.0 | 0.00 | 0.00 | 0.00 | 22 | 1018.1 |
| 20260505011803 | 55 | 346 | 7.0 | 10.0 | 0.00 | 0.00 | 0.00 | 22 | 1018.2 |
| 20260505011301 | 55 | 333 | 3.0 | 8.0 | 0.00 | 0.00 | 0.00 | 22 | 1018.2 |
| 20260505010756 | 54 | 350 | 7.0 | 13.0 | 0.00 | 0.00 | 0.00 | 22 | 1018.2 |
| 20260505010253 | 54 | 354 | 4.0 | 15.0 | 0.00 | 0.00 | 0.00 | 22 | 1018.2 |
| 20260505005749 | 55 | 357 | 7.0 | 14.0 | 0.00 | 0.00 | 0.00 | 22 | 1018.0 |
| 20260505005246 | 56 | 306 | 6.0 | 9.0 | 0.00 | 0.00 | 0.00 | 22 | 1018.2 |
| 20260505004743 | 55 | 341 | 9.0 | 15.0 | 0.00 | 0.00 | 0.00 | 22 | 1018.1 |
| 20260505004239 | 55 | 348 | 9.0 | 15.0 | 0.00 | 0.00 | 0.00 | 22 | 1018.4 |
| 20260505003737 | 56 | 331 | 6.0 | 15.0 | 0.00 | 0.00 | 0.00 | 22 | 1018.4 |
| 20260505003235 | 55 | 353 | 13.0 | 21.0 | 0.00 | 0.00 | 0.00 | 22 | 1018.2 |
| 20260505002731 | 55 | 346 | 8.0 | 15.0 | 0.00 | 0.00 | 0.00 | 23 | 1018.1 |
| 20260505002228 | 57 | 4 | 14.0 | 18.0 | 0.00 | 0.00 | 0.00 | 23 | 1018.1 |
| 20260505001725 | 57 | 325 | 12.0 | 18.0 | 0.00 | 0.00 | 0.00 | 23 | 1018.4 |
| 20260505001223 | 57 | 330 | 9.0 | 13.0 | 0.00 | 0.00 | 0.00 | 23 | 1018.1 |
| 20260505000720 | 57 | 335 | 12.0 | 18.0 | 0.00 | 0.00 | 0.00 | 23 | 1018.0 |
| 20260505000219 | 57 | 352 | 7.0 | 16.0 | 0.00 | 0.00 | 0.00 | 24 | 1017.9 |
| 20260504235714 | 57 | 19 | 8.0 | 19.0 | 0.00 | 0.00 | 0.00 | 24 | 1018.2 |
| 20260504235210 | 57 | 2 | 11.0 | 13.0 | 0.00 | 0.00 | 0.00 | 24 | 1018.1 |
| 20260504234708 | 57 | 319 | 11.0 | 15.0 | 0.00 | 0.00 | 0.00 | 23 | 1018.2 |
| 20260504234205 | 57 | 359 | 8.0 | 17.0 | 0.00 | 0.00 | 0.00 | 24 | 1018.2 |
| 20260504233701 | 57 | 346 | 8.0 | 14.0 | 0.00 | 0.00 | 0.00 | 24 | 1018.2 |
| 20260504233157 | 57 | 21 | 6.0 | 13.0 | 0.00 | 0.00 | 0.00 | 24 | 1018.4 |
| 20260504232654 | 57 | 337 | 11.0 | 15.0 | 0.00 | 0.00 | 0.00 | 24 | 1018.2 |
| 20260504232151 | 55 | 332 | 6.0 | 11.0 | 0.00 | 0.00 | 0.00 | 25 | 1018.4 |
| 20260504231648 | 57 | 6 | 8.0 | 17.0 | 0.00 | 0.00 | 0.00 | 25 | 1018.1 |
| 20260504231144 | 57 | 331 | 8.0 | 10.0 | 0.00 | 0.00 | 0.00 | 26 | 1018.2 |
| 20260504230640 | 56 | 3 | 8.0 | 15.0 | 0.00 | 0.00 | 0.00 | 26 | 1018.1 |
| 20260504230139 | 57 | 306 | 7.0 | 18.0 | 0.00 | 0.00 | 0.00 | 27 | 1018.2 |
| 20260504225637 | 58 | 324 | 5.0 | 15.0 | 0.00 | 0.00 | 0.00 | 27 | 1018.2 |
| 20260504225133 | 57 | 357 | 7.0 | 18.0 | 0.00 | 0.00 | 0.00 | 27 | 1018.2 |
| 20260504224630 | 56 | 329 | 10.0 | 17.0 | 0.00 | 0.00 | 0.00 | 29 | 1018.0 |
| 20260504224127 | 55 | 322 | 10.0 | 15.0 | 0.00 | 0.00 | 0.00 | 29 | 1018.1 |
| 20260504223624 | 55 | 331 | 13.0 | 18.0 | 0.00 | 0.00 | 0.00 | 29 | 1018.4 |
| 20260504223120 | 55 | 339 | 6.0 | 16.0 | 0.00 | 0.00 | 0.00 | 30 | 1018.4 |
| 20260504222617 | 56 | 340 | 13.0 | 19.0 | 0.00 | 0.00 | 0.00 | 29 | 1018.4 |
| 20260504222114 | 55 | 324 | 7.0 | 14.0 | 0.00 | 0.00 | 0.00 | 30 | 1018.4 |
| 20260504221611 | 55 | 359 | 8.0 | 11.0 | 0.00 | 0.00 | 0.00 | 29 | 1018.4 |
| 20260504221108 | 55 | 332 | 7.0 | 16.0 | 0.00 | 0.00 | 0.00 | 30 | 1018.4 |
| 20260504220604 | 58 | 356 | 15.0 | 17.0 | 0.00 | 0.00 | 0.00 | 27 | 1018.2 |
| 20260504215558 | 55 | 325 | 4.0 | 15.0 | 0.00 | 0.00 | 0.00 | 29 | 1018.4 |
| 20260504215055 | 55 | 333 | 8.0 | 18.0 | 0.00 | 0.00 | 0.00 | 29 | 1018.5 |
| 20260504214551 | 55 | 326 | 10.0 | 14.0 | 0.00 | 0.00 | 0.00 | 31 | 1018.4 |
| 20260504214048 | 55 | 326 | 12.0 | 14.0 | 0.00 | 0.00 | 0.00 | 30 | 1018.5 |
| 20260504213544 | 55 | 327 | 4.0 | 13.0 | 0.00 | 0.00 | 0.00 | 31 | 1018.7 |
| 20260504213041 | 55 | 328 | 8.0 | 15.0 | 0.00 | 0.00 | 0.00 | 31 | 1018.4 |
| 20260504212537 | 55 | 322 | 9.0 | 11.0 | 0.00 | 0.00 | 0.00 | 31 | 1018.5 |
| 20260504212035 | 56 | 343 | 6.0 | 11.0 | 0.00 | 0.00 | 0.00 | 32 | 1018.7 |
| 20260504211531 | 55 | 8 | 11.0 | 17.0 | 0.00 | 0.00 | 0.00 | 33 | 1018.4 |
| 20260504211028 | 55 | 350 | 7.0 | 15.0 | 0.00 | 0.00 | 0.00 | 33 | 1018.5 |
| 20260504210525 | 55 | 19 | 10.0 | 17.0 | 0.00 | 0.00 | 0.00 | 32 | 1018.4 |
| 20260504210022 | 55 | 358 | 11.0 | 15.0 | 0.00 | 0.00 | 0.00 | 33 | 1018.4 |
| 20260504205520 | 56 | 9 | 12.0 | 15.0 | 0.00 | 0.00 | 0.00 | 31 | 1018.4 |
| 20260504205018 | 55 | 334 | 9.0 | 17.0 | 0.00 | 0.00 | 0.00 | 33 | 1018.6 |
| 20260504204515 | 57 | 341 | 4.0 | 13.0 | 0.00 | 0.00 | 0.00 | 32 | 1018.1 |
| 20260504204015 | 57 | 356 | 11.0 | 17.0 | 0.00 | 0.00 | 0.00 | 31 | 1018.4 |
| 20260504203512 | 59 | 338 | 7.0 | 9.0 | 0.00 | 0.00 | 0.00 | 30 | 1018.1 |
| 20260504203009 | 58 | 14 | 11.0 | 18.0 | 0.00 | 0.00 | 0.00 | 31 | 1018.1 |
| 20260504202504 | 58 | 343 | 10.0 | 16.0 | 0.00 | 0.00 | 0.00 | 31 | 1017.8 |
| 20260504202001 | 59 | 334 | 7.0 | 15.0 | 0.00 | 0.00 | 0.00 | 31 | 1018.2 |
| 20260504201459 | 57 | 327 | 8.0 | 14.0 | 0.00 | 0.00 | 0.00 | 33 | 1018.2 |